This is the latest recevied weather packets stored in our database for station/object N1ICS-1. If no packets are shown the sender has not sent any weather packets the latest 10 day(s).
| Time | Temp. | Humidity | Pressure | Rain* | Wind** | Luminosity | Snow |
|---|---|---|---|---|---|---|---|
| 1778021402 | 8.33° C | 99% | 1010.5 hPa | 2.29 mm | - | 38 W/m² | - |
| 1778021102 | 8.33° C | 99% | 1010.7 hPa | 1.78 mm | - | 39 W/m² | - |
| 1778020802 | 8.33° C | 99% | 1010.6 hPa | 1.02 mm | - | 45 W/m² | - |
| 1778020502 | 8.33° C | 99% | 1010.9 hPa | 1.78 mm | - | 34 W/m² | - |
| 1778020201 | 8.33° C | 99% | 1010.9 hPa | 1.02 mm | - | 49 W/m² | - |
| 1778019902 | 8.33° C | 99% | 1011 hPa | 2.29 mm | - | 54 W/m² | - |
| 1778019602 | 8.33° C | 99% | 1010.7 hPa | 1.78 mm | - | 55 W/m² | - |
| 1778019302 | 8.33° C | 99% | 1011 hPa | 1.02 mm | - | 45 W/m² | - |
| 1778019002 | 8.33° C | 99% | 1010.8 hPa | 1.02 mm | - | 47 W/m² | - |
| 1778018702 | 8.33° C | 99% | 1010.8 hPa | 1.78 mm | - | 36 W/m² | - |
| 1778018402 | 8.33° C | 99% | 1010.7 hPa | 1.78 mm | - | 51 W/m² | - |
| 1778018102 | 8.33° C | 98% | 1010.6 hPa | 1.02 mm | - | 49 W/m² | - |
| 1778017801 | 8.89° C | 99% | 1010.4 hPa | 1.02 mm | - | 58 W/m² | - |
| 1778017501 | 8.89° C | 99% | 1010.4 hPa | 0.51 mm | - | 40 W/m² | - |
| 1778017202 | 8.89° C | 99% | 1010.3 hPa | 0 mm | - | 29 W/m² | - |
| 1778016902 | 8.89° C | 98% | 1009.9 hPa | 0 mm | - | 30 W/m² | - |
| 1778016601 | 9.44° C | 98% | 1009.9 hPa | 0 mm | - | 37 W/m² | - |
| 1778016302 | 9.44° C | 98% | 1009.9 hPa | 0 mm | - | 37 W/m² | - |
| 1778016002 | 9.44° C | 98% | 1009.9 hPa | 0.51 mm | - | 67 W/m² | - |
| 1778015702 | 9.44° C | 97% | 1009.9 hPa | 0.51 mm | - | 79 W/m² | - |
| 1778015402 | 9.44° C | 98% | 1009.9 hPa | 0 mm | - | 120 W/m² | - |
| 1778015102 | 9.44° C | 98% | 1009.5 hPa | 0.51 mm | - | 157 W/m² | - |
| 1778014802 | 9.44° C | 98% | 1009.7 hPa | 1.78 mm | - | 139 W/m² | - |
| 1778014501 | 9.44° C | 99% | 1009.8 hPa | 1.02 mm | - | 116 W/m² | - |
| 1778014202 | 9.44° C | 99% | 1009.8 hPa | 1.02 mm | - | 116 W/m² | - |
* Rain latest hour (hover to see other rain measurements)
** Current wind speed in m/s (hover to see current wind gust speed)